Roanoke, VA

12:58 AM EDT on August 30, 2016 (GMT -0400)
Roanoke Regional-Woodrum

Weather History for KROA - April, 2013

Change the Weather History Date:

Friday, April 12, 2013

  Actual Average Record
Temperature  
Mean Temperature 66 °F 56 °F  
Max Temperature 76 °F 67 °F 92 °F (1930)
Min Temperature 56 °F 45 °F 24 °F (1973)
Degree Days  
Heating Degree Days 0 10  
Month to date heating degree days 123 137  
Since 1 July heating degree days 3764 3894  
Cooling Degree Days 1 1  
Month to date cooling degree days 32 4  
Year to date cooling degree days 32 9  
Growing Degree Days 18 (Base 50)    
Moisture  
Dew Point 55 °F    
Average Humidity 63    
Maximum Humidity 97    
Minimum Humidity 29    
Precipitation  
Precipitation 1.16 in 0.11 in 1.38 in (2004)
Month to date precipitation 1.91 1.35  
Year to date precipitation 14.60 10.62  
Snow  
Snow 0.00 in - - ()
Month to date snowfall 1.0  
Since 1 July snowfall 18.3  
Snow Depth 0.00 in    
Sea Level Pressure  
Sea Level Pressure 29.68 in    
Wind  
Wind Speed 12 mph (SW)    
Max Wind Speed 28 mph    
Max Gust Speed 37 mph    
Visibility 8 miles    
Events Rain , Thunderstorm    
T = Trace of Precipitation, MM = Missing Value Source: NWS Daily Summary

Daily Weather History Graph

Daily Weather History Graph

Search for Another Location

Airport or City:

Trip Planner

Search our weather history database for the weather conditions in past years. The results will help you decide how hot, cold, wet, or windy it might be!

Date:

Astronomy

Apr. 12, 2013 Rise Set
Actual Time 6:49 AM EDT 7:52 PM EDT
Civil Twilight 6:22 AM EDT 8:19 PM EDT
Nautical Twilight 5:50 AM EDT 8:51 PM EDT
Astronomical Twilight 5:17 AM EDT 9:24 PM EDT
Moon 8:00 AM EDT (4/12) 10:18 PM EDT (4/12)
Length of Visible Light 13h 56m
Length of Day
13h 03m
Waxing Crescent, 5% of the Moon is Illuminated
Apr 12
Waxing Crescent
Apr 18
First Quarter
Apr 25
Full
May 2
Last Quarter
May 9
New

Hourly Weather History & Observations

Time (EDT) Temp. Dew Point Humidity Pressure Visibility Wind Dir Wind Speed Gust Speed Precip Events Conditions
12:21 AM 73.4 °F 60.8 °F 65% 29.76 in 8.0 mi SSW 17.3 mph 36.8 mph 0.00 in Rain , Thunderstorm Light Thunderstorms and Rain
12:54 AM 69.1 °F 62.1 °F 78% 29.71 in 10.0 mi South 8.1 mph - 0.05 in Rain Light Rain
1:54 AM 68.0 °F 64.0 °F 87% 29.67 in 5.0 mi South 10.4 mph - 0.02 in Rain , Thunderstorm Thunderstorms and Rain
1:58 AM 68.0 °F 64.4 °F 88% 29.71 in 4.0 mi South 6.9 mph - 0.04 in Rain , Thunderstorm Thunderstorms and Rain
2:17 AM 66.2 °F 64.4 °F 94% 29.70 in 2.5 mi South 8.1 mph - 0.24 in Rain , Thunderstorm Heavy Thunderstorms and Rain
2:25 AM 68.0 °F 64.4 °F 88% 29.70 in 10.0 mi South 9.2 mph - 0.25 in Rain , Thunderstorm Thunderstorms and Rain
2:52 AM 68.0 °F 64.4 °F 88% 29.67 in 10.0 mi South 12.7 mph 29.9 mph 0.25 in Rain Light Rain
2:54 AM 68.0 °F 64.0 °F 87% 29.63 in 10.0 mi South 12.7 mph 29.9 mph 0.25 in Rain Light Rain
3:21 AM 68.0 °F 64.4 °F 88% 29.66 in 4.0 mi South 11.5 mph 24.2 mph 0.10 in Rain , Thunderstorm Thunderstorms and Rain
3:36 AM 66.2 °F 62.6 °F 88% 29.70 in 1.8 mi WSW 23.0 mph 34.5 mph N/A Rain , Thunderstorm Thunderstorms and Rain
3:49 AM 62.6 °F 60.8 °F 94% 29.68 in 2.0 mi SSW 10.4 mph 18.4 mph 0.47 in Rain , Thunderstorm Thunderstorms and Rain
3:54 AM 63.0 °F 60.1 °F 90% 29.66 in 2.5 mi South 11.5 mph - 0.51 in Rain , Thunderstorm Thunderstorms and Rain
4:01 AM 62.6 °F 60.8 °F 94% 29.69 in 4.0 mi WSW 5.8 mph 19.6 mph 0.04 in Rain , Thunderstorm Thunderstorms and Rain
4:54 AM 61.0 °F 57.9 °F 90% 29.65 in 6.0 mi SW 5.8 mph - 0.28 in Rain , Thunderstorm Thunderstorms and Rain
5:17 AM 60.8 °F 57.2 °F 88% 29.67 in 6.0 mi Calm Calm - 0.05 in Rain Light Rain
5:54 AM 61.0 °F 57.9 °F 90% 29.65 in 10.0 mi Calm Calm - 0.06 in   Scattered Clouds
6:29 AM 60.8 °F 59.0 °F 94% 29.67 in 10.0 mi SSE 5.8 mph - N/A   Mostly Cloudy
6:54 AM 61.0 °F 59.0 °F 93% 29.64 in 10.0 mi SE 5.8 mph - N/A   Mostly Cloudy
7:54 AM 61.0 °F 59.0 °F 93% 29.65 in 10.0 mi ESE 5.8 mph - 0.00 in Rain Light Rain
8:54 AM 64.0 °F 60.1 °F 87% 29.66 in 10.0 mi Calm Calm - 0.01 in   Overcast
9:54 AM 64.9 °F 61.0 °F 87% 29.66 in 10.0 mi Calm Calm - 0.00 in Rain Light Rain
10:54 AM 66.9 °F 61.0 °F 81% 29.67 in 10.0 mi Calm Calm - 0.03 in   Overcast
11:21 AM 66.2 °F 60.8 °F 83% 29.71 in 10.0 mi West 6.9 mph - N/A   Overcast
11:54 AM 70.0 °F 57.9 °F 65% 29.68 in 10.0 mi WSW 8.1 mph - N/A   Mostly Cloudy
12:54 PM 71.1 °F 54.0 °F 55% 29.67 in 10.0 mi West 19.6 mph 26.5 mph N/A   Scattered Clouds
1:54 PM 73.9 °F 53.1 °F 48% 29.65 in 10.0 mi WSW 17.3 mph 25.3 mph N/A   Scattered Clouds
2:54 PM 75.9 °F 46.9 °F 36% 29.64 in 10.0 mi West 19.6 mph 31.1 mph N/A   Scattered Clouds
3:54 PM 75.0 °F 41.0 °F 29% 29.64 in 10.0 mi West 23.0 mph 32.2 mph N/A   Scattered Clouds
4:54 PM 75.0 °F 42.1 °F 31% 29.64 in 10.0 mi West 17.3 mph 24.2 mph N/A   Partly Cloudy
5:54 PM 73.0 °F 44.1 °F 35% 29.65 in 10.0 mi WSW 16.1 mph 21.9 mph N/A   Partly Cloudy
6:54 PM 72.0 °F 37.0 °F 28% 29.67 in 10.0 mi WSW 15.0 mph 20.7 mph N/A   Partly Cloudy
7:54 PM 68.0 °F 39.0 °F 35% 29.69 in 10.0 mi West 10.4 mph - N/A   Partly Cloudy
8:54 PM 64.9 °F 41.0 °F 42% 29.73 in 10.0 mi NNW 16.1 mph - N/A   Clear
9:54 PM 63.0 °F 34.0 °F 34% 29.77 in 10.0 mi NW 17.3 mph 26.5 mph N/A   Clear
10:54 PM 60.1 °F 34.0 °F 38% 29.80 in 10.0 mi WNW 11.5 mph - N/A   Clear
11:54 PM 60.1 °F 34.0 °F 38% 29.81 in 10.0 mi WNW 24.2 mph 34.5 mph N/A   Clear